www.pogodaiklimat.ru

ПОГОДА в Горном

  • Прогноз погоды в Горном
  • Монитор погоды в Горном
  • Климат города

АРХИВ ПОГОДЫ в Горном

Время (UTC), дата Ветер
(напр.,м/с)
 
Видим.   Явления Облачность Т
(С)
Тd
(С)
f
(%)
Тe
(С)
Тes
(С)
Комфортность P
(гПа)
Po
(гПа)
Тmin
(С)
Tmax
(С)
R
(мм)
S
(см)
03 11.01 С 2 200 м туман [диам. изморози 2 мм] ясно -3.7 -3.7 100 -8 -8 1022.4 981.5 -3.7
06 11.01 СВ 1 500 м переохл. туман [диам. изморози 3 мм] 9/5 600 м
[Sc Ci]
-3.8 -3.8 100 -6 -6 1023.0 982.2 -4.3
09 11.01 СВ 1 50 км {туман} [диам. изморози 3 мм] 9/3 600 м
[Sc Ci sp]
+0.4 +0.4 100 -2 +1 1022.6 982.5
12 11.01 ЮЗ 4 50 км {туман} 10/3 600 м
[Sc Ac lent Ci sp]
+9.8 +3.4 64 +8 +8 1022.0 983.0
15 11.01 Ю 2
{11}
4000 м ливневой дождь 10/10 600 м
[Cb cap]
+4.8 +4.4 97 +2 +2 1025.3 985.6 +9.8 3
18 11.01 ЮЗ 1 20 км в посл. час ливневой дождь 10/10 600 м
[Cb calv]
+5.5 +2.7 82 +4 +4 1025.6 986.0
21 11.01 ЮЗ 4 20 км 8/3 600 м
[Sc diur, vesp Ci]
+5.7 +1.9 77 +2 +2 1025.2 985.6
00 12.01 Ю 3 50 км 4/0
[Ci fib]
+6.1 -1.3 59 +3 +3 1023.4 984.0
03 12.01 Ю 6-11
{11}
50 км 3/0
[Ci fib]
+7.7 -3.4 45 +4 +4 1020.9 981.8 +4.8 1
06 12.01 ЮЗ 3
{13}
50 км 3/0
[Ac cast Ci]
+7.4 -4.7 42 +5 +6 1017.9 978.9
09 12.01 Ю 5-13
{13}
50 км 8/0
[Ac As Ci sp]
+12.9 -9.0 21 +11 +13 1014.0 975.9
12 12.01 Ю 5-10
{14}
50 км 10/0
[Cs]
+12.7 -14.4 14 +11 +12 1011.2 973.1
15 12.01 Ю 5
{12}
50 км 10/0
[Cs]
+9.2 -6.9 31 +7 +7 1010.6 972.1 +13.2
18 12.01 Ю 11-20
{22}
20 км 10/5 600 м
[Sc Cs]
+8.2 +0.5 58 +3 +3 1010.7 972.1
21 12.01 Ю 4
{20}
4000 м слабый ливневой дождь со снегом 10/10 600 м
[Cb cap]
+1.7 +0.2 90 -3 -3 1015.3 975.6
00 13.01 Ю 5
{13}
н/о н/о +1.9 -2.2 74 -3 -3 1016.7 977.0
03 13.01 Ю 3
{12}
20 км 10/10 600 м
[Sc]
+2.0 -3.7 66 -2 -2 1017.1 977.3 +0.6 6
06 13.01 ЮЗ 4-10
{10}
20 км {ливн. осадки} 10/8 600 м
[Sc diur, vesp Ac lent]
+1.6 -1.5 80 -3 -3 1017.9 978.1
09 13.01 ЮЗ 2
{10}
20 км слабый ливневой снег 10/10 600 м
[Cb cap]
+1.4 -0.1 90 -2 -2 1019.2 979.3
12 13.01 Ю 2 10 км слабый ливневой снег 10/10 300 м
[Cb cap]
+1.3 +1.0 98 -2 -2 1020.1 980.1
15 13.01 ЮВ 1 1000 м ливневой снег 10/10 300 м
[Cb cap]
+0.2 +0.2 100 -2 -2 1021.8 981.6 +2.2 5
18 13.01 ЮЗ 2 1000 м дымка {ливн. осадки} 10/10 300 м
[Sc diur, vesp]
+0.3 +0.3 100 -4 -4 1022.2 982.0
21 13.01 ЮЗ 1 1000 м слабый ливневой снег 10/10 300 м
[Cb cap]
+0.2 +0.2 100 -2 -2 1021.8 981.6
00 14.01 ЮЗ 2 50 км {ливн. осадки} 3/0
[Ac cast]
-0.2 -0.9 95 -4 -4 1020.8 980.6
03 14.01 С 1 50 км местами туман поземный 10/0
[Ac cast Ci fib]
-1.7 -1.7 100 -4 -4 1021.0 980.5 -1.7 2 1
06 14.01 С 1 50 км 3/0
[Ci sp]
-1.3 -2.5 92 -4 -3 1019.6 979.3 -2.0
09 14.01 ЮВ 1 50 км 3/0
[Ci sp]
+3.4 -0.6 75 +2 +6 1016.7 977.2
12 14.01 В 1 50 км 4/0
[Ac cast Ci sp]
+7.1 -4.9 42 +7 +8 1014.6 975.5
15 14.01 С 1 50 км 8/0
[Ac cast Ci fib]
+2.9 +1.9 93 +1 +1 1015.0 975.5 +7.7
18 14.01 С 1 50 км 6/0
[Ac cast Ci fib]
-0.4 -2.3 87 -2 -2 1015.3 975.2
21 14.01 С 1 50 км 8/0
[Ac cast]
-1.7 -2.8 92 -4 -4 1015.5 975.2
00 15.01 штиль 0 50 км 10/0
[Ac cast Ci]
-2.2 -3.0 94 -3 -3 1015.6 975.3
03 15.01 штиль 0 50 км 8/0
[Ac cast Ci]
-2.5 -2.5 100 -4 -4 1015.3 974.9 -2.5 1
06 15.01 СВ 1 50 км 8/0
[Ac lent Ci fib]
-1.9 -2.7 94 -4 -4 1016.1 975.7 -3.1
09 15.01 ЮЗ 3 50 км 8/0
[Ac lent]
+7.7 -6.1 37 +6 +7 1014.9 975.9
12 15.01 ЮЗ 5-10
{10}
50 км 8/0
[Ac lent Cc]
+10.3 -7.3 28 +8 +9 1015.0 976.4
15 15.01 ЮЗ 2
{10}
50 км 4/0
[Ac cast]
+7.4 -6.7 36 +6 +6 1016.6 977.5 +10.4
18 15.01 ЮЗ 4 50 км 3/0
[Ac lent]
+5.4 -1.4 62 +2 +2 1017.6 978.3
21 15.01 ЮЗ 3 50 км 8/0
[Ac lent]
+3.6 -4.1 57 0 0 1018.6 979.0
00 16.01 ЮЗ 3 50 км 9/0
[Ac lent]
+6.2 -7.8 36 +4 +4 1018.6 979.4
03 16.01 Ю 2 50 км 10/5 600 м
[Sc Ac lent]
+5.8 -5.2 45 +4 +4 1019.9 980.5 +3.1
06 16.01 ЮЗ 6-10
{12}
20 км слабый ливневой дождь 9/9 600 м
[Cb cap]
+4.2 +1.0 80 -1 -1 1021.3 981.7
09 16.01 Ю 3
{10}
20 км {ливн. осадки} 8/8 600 м
[Sc diur, vesp]
+6.5 +2.0 73 +4 +4 1021.2 981.9
12 16.01 Ю 3
{12}
50 км {ливн. осадки} 8/5 600 м
[Sc diur, vesp Ci sp]
+7.0 +1.0 66 +4 +5 1021.1 981.9
15 16.01 штиль 0 50 км 10/0
[Ac As]
+6.1 +0.5 67 +5 +5 1021.0 981.7 +7.3 0.9
18 16.01 С 2 20 км 10/10 600 м
[Sc]
+3.5 +0.9 83 +1 +1 1021.1 981.5
21 16.01 С 1 20 км 10/10 600 м
[Sc]
+3.1 +0.9 85 +2 +2 1021.7 981.9
00 17.01 СВ 2 20 км слабый ливневой дождь 10/10 600 м
[Cb cap]
+2.6 +1.8 94 -1 -1 1022.4 982.6
03 17.01 СВ 2 20 км {ливн. осадки} 10/10 600 м
[Sc diur, vesp]
+2.6 +1.6 93 -1 -1 1021.9 982.0 +2.5 0.0
06 17.01 В 1 50 км {ливн. осадки} 10/5 600 м
[Sc diur, vesp Ac cast Ci fib]
+2.7 +2.7 100 +1 +1 1022.7 982.8 +2.4
09 17.01 С 1 20 км 10/10 600 м
[Sc diur, vesp]
+4.7 +0.8 76 +4 +4 1022.6 983.0
12 17.01 С 2 20 км {ливн. осадки} 10/10 600 м
[Sc diur, vesp]
+4.7 +0.8 76 +2 +2 1022.5 982.9
15 17.01 СВ 2 50 км 10/10 600 м
[Sc diur, vesp]
+4.3 +0.7 77 +2 +2 1023.1 983.4 +5.1 0.4
18 17.01 С 2 50 км 8/6 600 м
[Sc diur, vesp Ac lent]
+3.1 +1.1 87 0 0 1023.6 983.8
21 17.01 СВ 2 50 км местами туман поземный 8/3 600 м
[Sc diur, vesp Ac cast]
+0.7 +0.7 100 -3 -3 1023.5 983.3
00 18.01 С 2 20 км местами туман поземный 10/10 600 м
[Sc diur, vesp]
+0.7 +0.7 100 -3 -3 1024.1 983.9

 

Местоположение метеостанции Горный (Краснодарский край, Россия): широта 44.28 долгота 39.27 высота над уровнем моря 323 м.

В архиве по умолчанию представлена погода в Горном за последнюю неделю. Архивные данные за месяц целиком и за предыдущие месяцы, начиная с января 2011 года, Вы можете получить, выбрав интересующий диапазон дат из раскрывающегося списка и нажав кнопку "Ввод!".

Внимание! Время в таблицах - всемирное. Для получения местного времени необходимо прибавить поправку, которая в Горном равна 3 ч.

Ветер - указаны скорость ветра в м/с - средняя за 10 мин, порывы в срок и между сроками (в фигурных скобках) и направление, откуда дует ветер: С - северный, СВ - северо-восточный, В - восточный, ЮВ - юго-восточный, Ю - южный, ЮЗ - юго-западный, З - западный, СЗ - северо-западный.
Видимость - горизонтальная дальность видимости в метрах или километрах. При видимости от 1 до 10 км при отсутствии осадков обычно наблюдается дымка, при ухудшении видимости до 1 км и менее - туман. В сухую погоду видимость может ухудшаться дымом, пылью или мглою.
Явления - указаны атмосферные явления, наблюдавшиеся в срок или в последний час перед сроком; фигурными скобками обозначены явления, наблюдавшиеся между сроками (за 1-3 часа до срока); квадратными скобками обозначены град или гололедные отложения с указанием их диаметра в мм.
Облачность - указаны через наклонную черту общая и нижняя облачность в баллах и высота нижней границы облаков в метрах; квадратными скобками обозначены формы облаков: Ci - перистые, Cs - перисто-слоистые, Cc - перисто-кучевые, Ac - высококучевые, As - высокослоистые, Sc - слоисто-кучевые, Ns - слоисто-дождевые, Cu - кучевые, Cb - кучево-дождевые. Подробнее классификацию облаков см. в Атласе облаков (PDF).
T - Температура воздуха - температура, измеренная на высоте 2 м над землей.
Td - Температура точки росы - температура, при понижении до которой содержащийся в воздухе водяной пар достигнет насыщения.
f - Относительная влажность воздуха - влажноcть воздуха, измеренная на высоте 2 м над землей.
Te - Эффективная температура - температура, которую ощущает одетый по сезону человек в тени. Характеристика душности погоды. При расчете учитывается влияние влажности воздуха и скорости ветра на теплоощущения человека.
Tes - Эффективная температура на солнце - температура, которую ощущает человек, с поправкой на солнечный нагрев. Характеристика знойности погоды. Зависит от высоты солнца над горизонтом, облачности и скорости ветра. Ночью, в пасмурную погоду, а также при ветре 12 м/с и более поправка равна нулю.
P - Атмосферное давление - приведенное к уровню моря атмосферное давление.
Po - Атмосферное давление - измеренное на уровне метеостанции атмосферное давление.
Tmin - Минимальная температура - минимум температуры воздуха на высоте 2 м над землей.
Tmax - Максимальная температура - максимум температуры воздуха на высоте 2 м над землей.
R - Количество осадков - Количество выпавших осадков, мм. При наведении курсора мыши на число - период времени, за который выпало указанное количество осадков.
S - Снежный покров - Высота снежного покрова, см. При наведении курсора мыши на число - состояние снежного покрова и степень покрытия местности в баллах.